CW8919 Weather Reports


time (UTC)temp
C
wind
direction
speed
KPH
gust
KPH
rain 1hr
cm
rain 24hr
cm
rain mn
cm
humidity
%
barometer
mb
20200921152837 23 222 4.8 11.3 0.00 0.00 0.00 62 1019.6
20200921151335 23 232 3.2 11.3 0.00 0.00 0.00 63 1019.6
20200921145830 23 225 4.8 12.9 0.00 0.00 0.00 62 1019.6
20200921144330 24 204 3.2 17.7 0.00 0.00 0.00 62 1019.8
20200921142838 24 233 1.6 12.9 0.00 0.00 0.00 64 1019.7
20200921141326 23 222 3.2 9.7 0.00 0.00 0.00 67 1019.7
20200921135827 23 214 3.2 11.3 0.00 0.00 0.00 68 1019.9
20200921134326 24 216 1.6 11.3 0.00 0.00 0.00 66 1020.1
20200921132842 24 210 1.6 8.0 0.00 0.00 0.00 65 1020.1
20200921131340 24 210 1.6 9.7 0.00 0.00 0.00 68 1020.2
20200921125830 23 211 4.8 12.9 0.00 0.00 0.00 68 1020.3
20200921124322 23 216 1.6 9.7 0.00 0.00 0.00 66 1020.4
20200921122841 23 233 1.6 8.0 0.00 0.00 0.00 68 1020.4
20200921121336 23 258 1.6 6.4 0.00 0.00 0.00 69 1020.5
20200921115836 24 269 3.2 6.4 0.00 0.00 0.00 68 1020.5
20200921114334 23 270 1.6 6.4 0.00 0.00 0.00 72 1020.4
20200921112829 23 327 0.0 6.4 0.00 0.00 0.00 70 1020.6
20200921111330 23 346 1.6 6.4 0.00 0.00 0.00 71 1020.6
20200921105847 23 3 1.6 6.4 0.00 0.00 0.00 72 1020.6
20200921104337 23 1 1.6 4.8 0.00 0.00 0.00 72 1020.8
20200921102833 23 360 1.6 4.8 0.00 0.00 0.00 72 1020.7
20200921101329 22 349 1.6 4.8 0.00 0.00 0.00 75 1020.7
20200921095829 22 349 1.6 4.8 0.00 0.00 0.00 77 1020.7
20200921094325 21 350 3.2 6.4 0.00 0.00 0.00 80 1020.6
20200921092839 21 352 1.6 4.8 0.00 0.00 0.00 81 1020.7
20200921091329 21 353 0.0 3.2 0.00 0.00 0.00 81 1020.7
20200921085825 21 354 0.0 0.0 0.00 0.00 0.00 81 1020.7
20200921084330 20 354 0.0 0.0 0.00 0.00 0.00 83 1020.5
20200921082849 20 354 0.0 0.0 0.00 0.00 0.00 87 1020.3
20200921081331 19 354 0.0 0.0 0.00 0.00 0.00 88 1020.2
20200921075841 19 354 0.0 0.0 0.00 0.00 0.00 89 1020.3
20200921074331 18 354 0.0 0.0 0.00 0.00 0.00 91 1020.2
20200921072840 18 353 0.0 0.0 0.00 0.00 0.00 93 1020.1
20200921071327 18 354 0.0 0.0 0.00 0.00 0.00 93 1020.1
20200921065832 17 354 0.0 0.0 0.00 0.10 0.00 93 1019.9
20200921064339 18 354 0.0 0.0 0.00 0.10 0.00 93 1019.9
20200921062826 18 354 0.0 0.0 0.00 0.10 0.00 93 1019.8
20200921061322 18 353 0.0 0.0 0.00 0.10 0.00 93 1019.7
20200921055843 18 354 0.0 0.0 0.00 0.10 0.00 93 1019.8
20200921054341 18 354 0.0 0.0 0.00 0.10 0.00 93 1019.6
20200921052832 18 353 0.0 0.0 0.00 0.10 0.00 93 1019.5
20200921051345 18 354 0.0 0.0 0.00 0.10 0.00 93 1019.6
20200921045842 18 353 0.0 0.0 0.00 0.10 0.00 93 1019.6
20200921044328 18 354 0.0 0.0 0.00 0.10 0.00 93 1019.6
20200921042837 18 354 0.0 0.0 0.00 0.10 0.00 93 1019.7
20200921041336 18 353 0.0 3.2 0.00 0.10 0.00 93 1019.6
20200921035833 18 353 0.0 0.0 0.00 0.10 0.00 93 1019.8
20200921034338 18 354 1.6 3.2 0.00 0.10 0.00 93 1019.7
20200921032833 18 353 0.0 3.2 0.00 0.10 0.00 93 1019.6
20200921031338 18 354 0.0 4.8 0.00 0.10 0.00 92 1019.7
20200921025836 18 353 1.6 3.2 0.00 0.10 0.00 92 1019.7
20200921024323 18 353 3.2 6.4 0.00 0.10 0.00 92 1019.7
20200921022833 18 328 1.6 4.8 0.00 0.10 0.00 93 1019.9
20200921021338 18 319 1.6 4.8 0.00 0.10 0.00 93 1019.9
20200921015833 18 303 0.0 4.8 0.00 0.10 0.00 93 1020.0
20200921014334 18 303 1.6 4.8 0.00 0.10 0.00 93 1019.9
20200921012843 18 303 0.0 0.0 0.00 0.10 0.00 92 1020.0
20200921011335 18 303 0.0 0.0 0.00 0.10 0.00 91 1019.9
20200921005836 18 303 0.0 0.0 0.00 0.51 0.00 91 1020.2
20200921004341 18 303 0.0 0.0 0.00 0.51 0.00 91 1020.2
20200921002828 18 303 0.0 0.0 0.00 0.51 0.00 91 1020.3
20200921001340 18 303 0.0 0.0 0.00 0.51 0.00 90 1020.2
20200920235836 18 303 0.0 0.0 0.00 2.59 0.00 90 1020.3
20200920234337 18 303 0.0 0.0 0.00 2.59 0.00 89 1020.3
20200920232831 19 303 0.0 0.0 0.00 2.59 0.00 89 1020.3
20200920231341 19 303 0.0 0.0 0.00 2.59 0.00 88 1020.3
20200920225832 19 303 0.0 0.0 0.00 2.59 0.51 87 1020.1
20200920224338 20 303 0.0 0.0 0.00 2.59 0.51 86 1020.1
20200920222827 20 303 0.0 3.2 0.00 2.59 0.51 86 1020.2
20200920221337 20 303 0.0 4.8 0.00 2.59 0.51 86 1020.2
20200920215839 20 303 0.0 4.8 0.00 2.59 0.51 86 1020.4
20200920214340 20 303 1.6 6.4 0.00 2.59 0.51 85 1020.3
20200920212841 20 300 0.0 4.8 0.00 2.59 0.51 84 1020.4
20200920211328 20 300 0.0 0.0 0.00 2.59 0.51 82 1020.4
20200920205829 20 300 0.0 0.0 0.00 2.59 0.51 81 1020.5
20200920204340 20 300 0.0 0.0 0.00 2.59 0.51 80 1020.5
20200920202844 20 300 0.0 1.6 0.00 2.59 0.51 80 1020.4
20200920201329 20 300 0.0 4.8 0.00 2.59 0.51 79 1020.3
20200920195840 20 299 0.0 6.4 0.00 2.59 0.51 78 1020.3
20200920194331 20 297 0.0 6.4 0.00 2.59 0.51 77 1020.3
20200920192842 21 297 0.0 8.0 0.00 2.59 0.51 76 1020.2
20200920191325 21 294 1.6 11.3 0.00 2.59 0.51 75 1020.1
20200920185830 21 281 4.8 9.7 0.00 2.59 0.51 74 1019.9
20200920184337 21 275 1.6 6.4 0.00 2.59 0.51 74 1019.8
20200920182845 22 274 1.6 4.8 0.00 2.59 0.51 73 1019.8
20200920181335 22 274 0.0 3.2 0.00 2.59 0.51 72 1019.8
20200920175831 22 274 0.0 3.2 0.00 2.59 0.51 70 1019.7
20200920174343 22 275 0.0 3.2 0.00 2.59 0.51 69 1019.6
20200920172832 22 275 0.0 4.8 0.00 2.59 0.51 69 1019.6
20200920171324 22 276 1.6 4.8 0.00 2.59 0.51 69 1019.5
20200920165831 23 274 1.6 4.8 0.00 2.59 0.51 69 1019.3
20200920164343 23 274 1.6 11.3 0.00 2.59 0.51 69 1019.3
20200920162839 23 212 1.6 8.0 0.00 2.59 0.51 71 1019.3
20200920161329 22 212 1.6 9.7 0.00 2.59 0.51 73 1019.3
20200920155840 22 224 3.2 11.3 0.00 2.59 0.51 71 1019.3
20200920154331 23 224 3.2 9.7 0.00 2.59 0.51 72 1019.3